| time (UTC) | temp F | wind direction | speed MPH | gust MPH | rain 1hr in | rain 24hr in | rain mn in | humidity % | barometer mb |
| 20260505092618 | 57 | 215 | 0.0 | 0.0 | 0.00 | 0.00 | 0.00 | 85 | 1009.5 |
| 20260505092117 | 57 | 215 | 0.0 | 0.0 | 0.00 | 0.00 | 0.00 | 84 | 1009.3 |
| 20260505091613 | 58 | 215 | 0.0 | 0.0 | 0.00 | 0.00 | 0.00 | 83 | 1009.3 |
| 20260505091112 | 58 | 216 | 0.0 | 0.0 | 0.00 | 0.00 | 0.00 | 83 | 1009.3 |
| 20260505090609 | 58 | 216 | 0.0 | 0.0 | 0.00 | 0.00 | 0.00 | 82 | 1009.3 |
| 20260505090107 | 59 | 216 | 0.0 | 0.0 | 0.00 | 0.00 | 0.00 | 80 | 1009.2 |
| 20260505085604 | 59 | 215 | 0.0 | 0.0 | 0.00 | 0.00 | 0.00 | 80 | 1009.2 |
| 20260505085102 | 60 | 215 | 0.0 | 0.0 | 0.00 | 0.00 | 0.00 | 77 | 1009.3 |
| 20260505084600 | 60 | 222 | 0.0 | 0.0 | 0.00 | 0.00 | 0.00 | 78 | 1009.0 |
| 20260505084058 | 60 | 229 | 0.0 | 1.0 | 0.00 | 0.00 | 0.00 | 77 | 1009.0 |
| 20260505083555 | 60 | 228 | 0.0 | 0.0 | 0.00 | 0.00 | 0.00 | 77 | 1009.0 |
| 20260505083051 | 61 | 225 | 0.0 | 0.0 | 0.00 | 0.00 | 0.00 | 76 | 1009.0 |
| 20260505082547 | 60 | 208 | 0.0 | 0.0 | 0.00 | 0.00 | 0.00 | 76 | 1009.0 |
| 20260505082044 | 61 | 213 | 0.0 | 1.0 | 0.00 | 0.00 | 0.00 | 74 | 1008.6 |
| 20260505081541 | 59 | 219 | 0.0 | 0.0 | 0.00 | 0.00 | 0.00 | 77 | 1008.7 |
| 20260505081038 | 60 | 219 | 0.0 | 0.0 | 0.00 | 0.00 | 0.00 | 79 | 1008.8 |
| 20260505080534 | 60 | 205 | 0.0 | 0.0 | 0.00 | 0.00 | 0.00 | 77 | 1008.9 |
| 20260505080031 | 59 | 220 | 0.0 | 1.0 | 0.00 | 0.00 | 0.00 | 79 | 1008.6 |
| 20260505075527 | 59 | 229 | 0.0 | 0.0 | 0.00 | 0.00 | 0.00 | 80 | 1008.7 |
| 20260505075024 | 59 | 229 | 0.0 | 0.0 | 0.00 | 0.00 | 0.00 | 78 | 1008.7 |
| 20260505074521 | 60 | 227 | 2.0 | 2.0 | 0.00 | 0.00 | 0.00 | 77 | 1008.7 |
| 20260505074018 | 60 | 222 | 1.0 | 1.0 | 0.00 | 0.00 | 0.00 | 78 | 1008.5 |
| 20260505073515 | 60 | 203 | 1.0 | 1.0 | 0.00 | 0.00 | 0.00 | 76 | 1008.6 |
| 20260505073014 | 60 | 210 | 0.0 | 0.0 | 0.00 | 0.00 | 0.00 | 78 | 1008.8 |
| 20260505072509 | 60 | 224 | 1.0 | 2.0 | 0.00 | 0.00 | 0.00 | 78 | 1008.3 |
| 20260505072005 | 59 | 221 | 0.0 | 0.0 | 0.00 | 0.00 | 0.00 | 79 | 1008.5 |
| 20260505071501 | 58 | 203 | 0.0 | 1.0 | 0.00 | 0.00 | 0.00 | 81 | 1008.3 |
| 20260505070959 | 57 | 215 | 0.0 | 0.0 | 0.00 | 0.00 | 0.00 | 83 | 1008.4 |
| 20260505070456 | 58 | 224 | 2.0 | 2.0 | 0.00 | 0.00 | 0.00 | 83 | 1008.3 |
| 20260505065951 | 58 | 215 | 0.0 | 0.0 | 0.00 | 0.00 | 0.00 | 84 | 1008.3 |
| 20260505065448 | 58 | 217 | 0.0 | 0.0 | 0.00 | 0.00 | 0.00 | 82 | 1008.3 |
| 20260505064945 | 57 | 209 | 0.0 | 0.0 | 0.00 | 0.00 | 0.00 | 82 | 1008.2 |
| 20260505064442 | 56 | 213 | 0.0 | 0.0 | 0.00 | 0.00 | 0.00 | 88 | 1008.3 |
| 20260505063940 | 56 | 213 | 0.0 | 0.0 | 0.00 | 0.00 | 0.00 | 88 | 1008.3 |
| 20260505063436 | 57 | 214 | 0.0 | 0.0 | 0.00 | 0.00 | 0.00 | 88 | 1008.4 |
| 20260505062933 | 57 | 213 | 0.0 | 0.0 | 0.00 | 0.00 | 0.00 | 87 | 1008.3 |
| 20260505062430 | 57 | 214 | 0.0 | 0.0 | 0.00 | 0.00 | 0.00 | 87 | 1008.6 |
| 20260505061927 | 57 | 214 | 0.0 | 0.0 | 0.00 | 0.00 | 0.00 | 87 | 1008.5 |
| 20260505061425 | 58 | 222 | 1.0 | 1.0 | 0.00 | 0.00 | 0.00 | 85 | 1008.6 |
| 20260505060922 | 58 | 222 | 0.0 | 0.0 | 0.00 | 0.00 | 0.00 | 85 | 1008.6 |
| 20260505060419 | 59 | 221 | 0.0 | 0.0 | 0.00 | 0.00 | 0.00 | 83 | 1008.8 |
| 20260505055915 | 60 | 222 | 0.0 | 0.0 | 0.00 | 0.00 | 0.00 | 80 | 1008.8 |
| 20260505055412 | 59 | 225 | 0.0 | 0.0 | 0.00 | 0.00 | 0.00 | 83 | 1008.8 |
| 20260505054908 | 60 | 222 | 0.0 | 0.0 | 0.00 | 0.00 | 0.00 | 81 | 1008.8 |
| 20260505054406 | 59 | 220 | 0.0 | 1.0 | 0.00 | 0.00 | 0.00 | 82 | 1008.9 |
| 20260505053904 | 60 | 217 | 0.0 | 0.0 | 0.00 | 0.00 | 0.00 | 82 | 1008.9 |
| 20260505053401 | 59 | 211 | 0.0 | 0.0 | 0.00 | 0.00 | 0.00 | 81 | 1008.8 |
| 20260505052857 | 59 | 217 | 0.0 | 0.0 | 0.00 | 0.00 | 0.00 | 84 | 1009.0 |
| 20260505052354 | 57 | 223 | 0.0 | 0.0 | 0.00 | 0.00 | 0.00 | 92 | 1009.0 |
| 20260505051851 | 56 | 215 | 0.0 | 0.0 | 0.00 | 0.00 | 0.00 | 93 | 1008.9 |
| 20260505051348 | 55 | 215 | 0.0 | 0.0 | 0.00 | 0.00 | 0.00 | 95 | 1008.8 |
| 20260505050847 | 55 | 216 | 0.0 | 0.0 | 0.00 | 0.00 | 0.00 | 95 | 1008.8 |
| 20260505050345 | 55 | 215 | 0.0 | 0.0 | 0.00 | 0.00 | 0.00 | 96 | 1008.8 |
| 20260505041312 | 54 | 215 | 0.0 | 0.0 | 0.00 | 0.00 | 0.00 | 97 | 1008.5 |
| 20260505040809 | 54 | 215 | 0.0 | 0.0 | 0.00 | 0.00 | 0.00 | 97 | 1008.5 |
| 20260505040307 | 54 | 215 | 0.0 | 0.0 | 0.00 | 0.00 | 0.00 | 97 | 1008.7 |
| 20260505035803 | 54 | 215 | 0.0 | 0.0 | 0.00 | 0.00 | 0.00 | 97 | 1008.5 |
| 20260505035259 | 54 | 215 | 0.0 | 0.0 | 0.00 | 0.00 | 0.00 | 97 | 1008.5 |
| 20260505034756 | 54 | 215 | 0.0 | 0.0 | 0.00 | 0.00 | 0.00 | 97 | 1008.4 |
| 20260505034253 | 54 | 215 | 0.0 | 0.0 | 0.00 | 0.00 | 0.00 | 97 | 1008.4 |
| 20260505033750 | 54 | 216 | 0.0 | 0.0 | 0.00 | 0.00 | 0.00 | 97 | 1008.4 |
| 20260505033247 | 54 | 216 | 0.0 | 0.0 | 0.00 | 0.00 | 0.00 | 96 | 1008.5 |
| 20260505032745 | 54 | 215 | 0.0 | 0.0 | 0.00 | 0.00 | 0.00 | 96 | 1008.4 |
| 20260505032241 | 54 | 215 | 0.0 | 0.0 | 0.00 | 0.00 | 0.00 | 97 | 1008.6 |
| 20260505031739 | 54 | 215 | 0.0 | 0.0 | 0.00 | 0.00 | 0.00 | 97 | 1008.5 |
| 20260505031235 | 54 | 215 | 0.0 | 0.0 | 0.00 | 0.00 | 0.00 | 97 | 1008.4 |
| 20260505030732 | 54 | 215 | 0.0 | 0.0 | 0.00 | 0.00 | 0.00 | 97 | 1008.4 |
| 20260505030228 | 54 | 215 | 0.0 | 0.0 | 0.00 | 0.00 | 0.00 | 97 | 1008.4 |
| 20260505025724 | 54 | 215 | 0.0 | 0.0 | 0.00 | 0.00 | 0.00 | 97 | 1008.3 |
| 20260505025222 | 54 | 215 | 0.0 | 0.0 | 0.00 | 0.00 | 0.00 | 96 | 1008.5 |
| 20260505024720 | 53 | 215 | 0.0 | 0.0 | 0.00 | 0.00 | 0.00 | 96 | 1008.5 |
| 20260505024217 | 53 | 216 | 0.0 | 0.0 | 0.00 | 0.00 | 0.00 | 96 | 1008.3 |
| 20260505023714 | 53 | 215 | 0.0 | 0.0 | 0.00 | 0.00 | 0.00 | 96 | 1008.3 |
| 20260505023211 | 53 | 216 | 0.0 | 0.0 | 0.00 | 0.00 | 0.00 | 96 | 1008.3 |
| 20260505022709 | 53 | 216 | 0.0 | 0.0 | 0.00 | 0.00 | 0.00 | 96 | 1008.4 |
| 20260505022205 | 53 | 216 | 0.0 | 0.0 | 0.00 | 0.00 | 0.00 | 95 | 1008.3 |
| 20260505021702 | 53 | 215 | 0.0 | 0.0 | 0.00 | 0.00 | 0.00 | 95 | 1008.2 |
| 20260505021159 | 54 | 216 | 0.0 | 0.0 | 0.00 | 0.00 | 0.00 | 95 | 1008.2 |
| 20260505020655 | 54 | 215 | 0.0 | 0.0 | 0.00 | 0.00 | 0.00 | 95 | 1008.3 |
| 20260505020151 | 54 | 215 | 0.0 | 0.0 | 0.00 | 0.00 | 0.00 | 95 | 1008.1 |
| 20260505015648 | 54 | 215 | 0.0 | 0.0 | 0.00 | 0.00 | 0.00 | 94 | 1008.0 |
| 20260505015144 | 55 | 215 | 0.0 | 0.0 | 0.00 | 0.00 | 0.00 | 94 | 1008.1 |
| 20260505014641 | 55 | 215 | 0.0 | 0.0 | 0.00 | 0.00 | 0.00 | 94 | 1008.3 |
| 20260505014139 | 55 | 215 | 0.0 | 0.0 | 0.00 | 0.00 | 0.00 | 94 | 1008.2 |
| 20260505013636 | 55 | 215 | 0.0 | 0.0 | 0.00 | 0.00 | 0.00 | 94 | 1008.1 |
| 20260505013133 | 55 | 215 | 0.0 | 0.0 | 0.00 | 0.00 | 0.00 | 94 | 1008.1 |
| 20260505012631 | 55 | 215 | 0.0 | 0.0 | 0.00 | 0.00 | 0.00 | 93 | 1008.1 |
| 20260505012128 | 55 | 215 | 0.0 | 0.0 | 0.00 | 0.00 | 0.00 | 93 | 1008.0 |
| 20260505011623 | 56 | 215 | 0.0 | 0.0 | 0.00 | 0.00 | 0.00 | 93 | 1008.0 |
| 20260505011121 | 56 | 215 | 0.0 | 0.0 | 0.00 | 0.00 | 0.00 | 92 | 1008.0 |
| 20260505010616 | 57 | 215 | 0.0 | 0.0 | 0.00 | 0.00 | 0.00 | 91 | 1008.1 |
| 20260505010113 | 57 | 215 | 0.0 | 0.0 | 0.00 | 0.00 | 0.00 | 90 | 1008.0 |
| 20260505005609 | 57 | 215 | 0.0 | 0.0 | 0.00 | 0.00 | 0.00 | 90 | 1007.9 |
| 20260505005107 | 58 | 215 | 0.0 | 0.0 | 0.00 | 0.00 | 0.00 | 89 | 1007.8 |
| 20260505004604 | 58 | 215 | 0.0 | 0.0 | 0.00 | 0.00 | 0.00 | 88 | 1007.8 |
| 20260505004100 | 59 | 215 | 0.0 | 0.0 | 0.00 | 0.00 | 0.00 | 85 | 1007.9 |
| 20260505003558 | 59 | 215 | 0.0 | 0.0 | 0.00 | 0.00 | 0.00 | 85 | 1007.5 |
| 20260505003055 | 60 | 215 | 0.0 | 0.0 | 0.00 | 0.00 | 0.00 | 86 | 1007.9 |
| 20260505002555 | 61 | 215 | 0.0 | 0.0 | 0.00 | 0.00 | 0.00 | 81 | 1007.8 |
| 20260505002054 | 62 | 215 | 0.0 | 0.0 | 0.00 | 0.00 | 0.00 | 81 | 1008.0 |
| 20260505001551 | 62 | 215 | 0.0 | 0.0 | 0.00 | 0.00 | 0.00 | 78 | 1007.9 |
| 20260505001048 | 63 | 215 | 0.0 | 0.0 | 0.00 | 0.00 | 0.00 | 75 | 1007.8 |
| 20260505000546 | 63 | 215 | 0.0 | 0.0 | 0.00 | 0.00 | 0.00 | 75 | 1008.0 |
| 20260505000043 | 64 | 215 | 0.0 | 0.0 | 0.00 | 0.00 | 0.00 | 73 | 1007.9 |
| 20260504235540 | 65 | 215 | 0.0 | 0.0 | 0.00 | 0.00 | 0.00 | 73 | 1008.1 |
| 20260504235037 | 66 | 215 | 0.0 | 0.0 | 0.00 | 0.00 | 0.00 | 70 | 1008.0 |
| 20260504234534 | 66 | 215 | 0.0 | 0.0 | 0.00 | 0.00 | 0.00 | 68 | 1008.0 |
| 20260504234031 | 67 | 215 | 0.0 | 0.0 | 0.00 | 0.00 | 0.00 | 65 | 1008.0 |
| 20260504233526 | 68 | 224 | 0.0 | 0.0 | 0.00 | 0.00 | 0.00 | 63 | 1008.1 |
| 20260504233023 | 68 | 224 | 0.0 | 0.0 | 0.00 | 0.00 | 0.00 | 60 | 1008.2 |
| 20260504232520 | 69 | 223 | 0.0 | 0.0 | 0.00 | 0.00 | 0.00 | 60 | 1008.3 |
| 20260504232018 | 70 | 223 | 0.0 | 0.0 | 0.00 | 0.00 | 0.00 | 59 | 1008.2 |
| 20260504231514 | 70 | 217 | 0.0 | 0.0 | 0.00 | 0.00 | 0.00 | 57 | 1008.1 |
| 20260504231010 | 70 | 221 | 0.0 | 0.0 | 0.00 | 0.00 | 0.00 | 59 | 1008.3 |
| 20260504230507 | 70 | 213 | 1.0 | 1.0 | 0.00 | 0.00 | 0.00 | 57 | 1008.2 |
| 20260504230006 | 71 | 205 | 0.0 | 0.0 | 0.00 | 0.00 | 0.00 | 56 | 1008.5 |
| 20260504225502 | 71 | 221 | 1.0 | 2.0 | 0.00 | 0.00 | 0.00 | 54 | 1008.5 |
| 20260504224959 | 72 | 239 | 2.0 | 2.0 | 0.00 | 0.00 | 0.00 | 51 | 1008.6 |
| 20260504224456 | 73 | 211 | 1.0 | 2.0 | 0.00 | 0.00 | 0.00 | 52 | 1008.5 |
| 20260504223953 | 73 | 215 | 1.0 | 1.0 | 0.00 | 0.00 | 0.00 | 51 | 1008.5 |
| 20260504223449 | 73 | 200 | 1.0 | 1.0 | 0.00 | 0.00 | 0.00 | 51 | 1008.8 |
| 20260504222945 | 73 | 194 | 2.0 | 3.0 | 0.00 | 0.00 | 0.00 | 51 | 1008.8 |
| 20260504222443 | 73 | 217 | 1.0 | 1.0 | 0.00 | 0.00 | 0.00 | 52 | 1008.8 |
| 20260504221940 | 73 | 196 | 2.0 | 2.0 | 0.00 | 0.00 | 0.00 | 52 | 1009.0 |
| 20260504221437 | 73 | 198 | 2.0 | 2.0 | 0.00 | 0.00 | 0.00 | 50 | 1008.9 |
| 20260504220934 | 73 | 206 | 1.0 | 1.0 | 0.00 | 0.00 | 0.00 | 53 | 1008.7 |
| 20260504220430 | 73 | 166 | 6.0 | 8.0 | 0.00 | 0.00 | 0.00 | 49 | 1008.9 |
| 20260504215928 | 74 | 190 | 3.0 | 4.0 | 0.00 | 0.00 | 0.00 | 48 | 1009.0 |
| 20260504215424 | 74 | 224 | 4.0 | 4.0 | 0.00 | 0.00 | 0.00 | 48 | 1008.8 |
| 20260504214921 | 74 | 218 | 2.0 | 4.0 | 0.00 | 0.00 | 0.00 | 47 | 1008.9 |
| 20260504214417 | 74 | 233 | 1.0 | 1.0 | 0.00 | 0.00 | 0.00 | 49 | 1009.0 |
| 20260504213914 | 72 | 212 | 1.0 | 1.0 | 0.00 | 0.00 | 0.00 | 52 | 1009.1 |
| 20260504213410 | 72 | 212 | 0.0 | 1.0 | 0.00 | 0.00 | 0.00 | 52 | 1009.3 |
| 20260504212908 | 71 | 210 | 2.0 | 2.0 | 0.00 | 0.00 | 0.00 | 52 | 1009.2 |
| 20260504212403 | 72 | 172 | 3.0 | 4.0 | 0.00 | 0.00 | 0.00 | 52 | 1009.5 |
| 20260504211901 | 72 | 319 | 5.0 | 7.0 | 0.00 | 0.00 | 0.00 | 50 | 1009.4 |
| 20260504211357 | 72 | 233 | 1.0 | 2.0 | 0.00 | 0.00 | 0.00 | 53 | 1009.5 |
| 20260504210855 | 72 | 202 | 2.0 | 2.0 | 0.00 | 0.00 | 0.00 | 51 | 1009.4 |
| 20260504210351 | 72 | 193 | 2.0 | 2.0 | 0.00 | 0.00 | 0.00 | 51 | 1009.3 |
| 20260504205848 | 72 | 200 | 2.0 | 2.0 | 0.00 | 0.00 | 0.00 | 52 | 1009.8 |
| 20260504205346 | 72 | 351 | 3.0 | 4.0 | 0.00 | 0.00 | 0.00 | 50 | 1009.8 |
| 20260504204844 | 72 | 197 | 3.0 | 3.0 | 0.00 | 0.00 | 0.00 | 51 | 1009.5 |
| 20260504204342 | 71 | 215 | 1.0 | 2.0 | 0.00 | 0.00 | 0.00 | 51 | 1009.6 |
| 20260504203842 | 71 | 206 | 2.0 | 4.0 | 0.00 | 0.00 | 0.00 | 52 | 1009.6 |
| 20260504203338 | 71 | 186 | 1.0 | 2.0 | 0.00 | 0.00 | 0.00 | 52 | 1009.5 |
| 20260504202833 | 71 | 198 | 2.0 | 2.0 | 0.00 | 0.00 | 0.00 | 52 | 1009.4 |
| 20260504202331 | 71 | 206 | 3.0 | 4.0 | 0.00 | 0.00 | 0.00 | 53 | 1009.3 |
| 20260504201827 | 71 | 189 | 3.0 | 4.0 | 0.00 | 0.00 | 0.00 | 51 | 1009.6 |
| 20260504201325 | 71 | 160 | 2.0 | 2.0 | 0.00 | 0.00 | 0.00 | 51 | 1009.6 |
| 20260504200822 | 72 | 204 | 3.0 | 3.0 | 0.00 | 0.00 | 0.00 | 51 | 1009.8 |
| 20260504200319 | 72 | 195 | 1.0 | 2.0 | 0.00 | 0.00 | 0.00 | 50 | 1009.8 |
| 20260504195815 | 72 | 151 | 2.0 | 4.0 | 0.00 | 0.00 | 0.00 | 49 | 1009.8 |
| 20260504195311 | 73 | 185 | 3.0 | 4.0 | 0.00 | 0.00 | 0.00 | 48 | 1009.8 |
| 20260504194808 | 74 | 225 | 2.0 | 3.0 | 0.00 | 0.00 | 0.00 | 47 | 1009.4 |
| 20260504194304 | 73 | 223 | 1.0 | 1.0 | 0.00 | 0.00 | 0.00 | 48 | 1009.3 |
| 20260504193800 | 75 | 212 | 1.0 | 1.0 | 0.00 | 0.00 | 0.00 | 47 | 1009.2 |
| 20260504193258 | 72 | 207 | 2.0 | 2.0 | 0.00 | 0.00 | 0.00 | 53 | 1009.4 |
| 20260504192756 | 72 | 199 | 3.0 | 3.0 | 0.00 | 0.00 | 0.00 | 52 | 1009.4 |
| 20260504192254 | 72 | 204 | 2.0 | 2.0 | 0.00 | 0.00 | 0.00 | 53 | 1009.6 |
| 20260504191752 | 71 | 200 | 3.0 | 4.0 | 0.00 | 0.00 | 0.00 | 55 | 1009.6 |
| 20260504191249 | 69 | 199 | 2.0 | 2.0 | 0.00 | 0.00 | 0.00 | 56 | 1009.9 |
| 20260504190744 | 69 | 203 | 3.0 | 3.0 | 0.00 | 0.00 | 0.00 | 55 | 1009.9 |
| 20260504190241 | 69 | 193 | 2.0 | 2.0 | 0.00 | 0.00 | 0.00 | 54 | 1009.8 |
| 20260504185737 | 69 | 214 | 2.0 | 2.0 | 0.00 | 0.00 | 0.00 | 55 | 1009.9 |
| 20260504185235 | 69 | 211 | 2.0 | 2.0 | 0.00 | 0.00 | 0.00 | 54 | 1009.9 |
| 20260504184731 | 70 | 188 | 3.0 | 3.0 | 0.00 | 0.00 | 0.00 | 54 | 1009.9 |
| 20260504184227 | 70 | 213 | 1.0 | 1.0 | 0.00 | 0.00 | 0.00 | 53 | 1010.1 |
| 20260504183723 | 70 | 160 | 1.0 | 1.0 | 0.00 | 0.00 | 0.00 | 53 | 1010.3 |
| 20260504183220 | 70 | 209 | 2.0 | 3.0 | 0.00 | 0.00 | 0.00 | 54 | 1010.3 |
| 20260504182718 | 70 | 207 | 2.0 | 2.0 | 0.00 | 0.00 | 0.00 | 53 | 1010.1 |
| 20260504182215 | 71 | 204 | 2.0 | 3.0 | 0.00 | 0.00 | 0.00 | 52 | 1010.3 |
| 20260504181712 | 71 | 191 | 1.0 | 2.0 | 0.00 | 0.00 | 0.00 | 49 | 1010.2 |
| 20260504181210 | 71 | 203 | 2.0 | 3.0 | 0.00 | 0.00 | 0.00 | 50 | 1010.2 |
| 20260504180709 | 71 | 219 | 4.0 | 6.0 | 0.00 | 0.00 | 0.00 | 49 | 1010.1 |
| 20260504180207 | 71 | 216 | 2.0 | 2.0 | 0.00 | 0.00 | 0.00 | 50 | 1010.2 |
| 20260504175704 | 72 | 194 | 5.0 | 7.0 | 0.00 | 0.00 | 0.00 | 48 | 1010.1 |
| 20260504175200 | 72 | 236 | 1.0 | 1.0 | 0.00 | 0.00 | 0.00 | 53 | 1010.3 |
| 20260504174658 | 71 | 222 | 2.0 | 3.0 | 0.00 | 0.00 | 0.00 | 49 | 1010.2 |
| 20260504174155 | 72 | 174 | 6.0 | 9.0 | 0.00 | 0.00 | 0.00 | 48 | 1010.2 |
| 20260504173652 | 71 | 241 | 4.0 | 6.0 | 0.00 | 0.00 | 0.00 | 50 | 1010.3 |
| 20260504173149 | 71 | 214 | 2.0 | 2.0 | 0.00 | 0.00 | 0.00 | 53 | 1010.3 |
| 20260504172646 | 71 | 198 | 3.0 | 4.0 | 0.00 | 0.00 | 0.00 | 51 | 1010.3 |
| 20260504172142 | 71 | 179 | 5.0 | 7.0 | 0.00 | 0.00 | 0.00 | 51 | 1010.1 |
| 20260504171639 | 71 | 157 | 6.0 | 7.0 | 0.00 | 0.00 | 0.00 | 52 | 1010.4 |
| 20260504171136 | 71 | 203 | 3.0 | 3.0 | 0.00 | 0.00 | 0.00 | 53 | 1010.4 |
| 20260504170632 | 71 | 197 | 2.0 | 3.0 | 0.00 | 0.00 | 0.00 | 52 | 1010.4 |
| 20260504170130 | 71 | 216 | 2.0 | 2.0 | 0.00 | 0.00 | 0.00 | 50 | 1010.4 |
| 20260504151021 | 64 | 176 | 3.0 | 6.0 | 0.00 | 0.00 | 0.00 | 57 | 1011.9 |
| 20260504150519 | 63 | 227 | 3.0 | 4.0 | 0.00 | 0.00 | 0.00 | 57 | 1011.8 |
| 20260504140945 | 61 | 250 | 2.0 | 3.0 | 0.00 | 0.00 | 0.00 | 57 | 1012.7 |
| 20260504140441 | 61 | 187 | 2.0 | 3.0 | 0.00 | 0.00 | 0.00 | 60 | 1012.4 |
| 20260504130406 | 58 | 197 | 2.0 | 3.0 | 0.00 | 0.00 | 0.00 | 59 | 1012.4 |
| 20260504110253 | 40 | 215 | 0.0 | 0.0 | 0.00 | 0.00 | 0.00 | 97 | 1012.3 |
| 20260504100217 | 41 | 215 | 0.0 | 0.0 | 0.00 | 0.00 | 0.00 | 96 | 1012.5 |